Home   Weather   Brattleboro   Past weeks

Flag for USA Past Weather in Brattleboro, Vermont, USA — Yesterday and Last 2 Weeks

53 °F


Feels Like: 51 °F
Forecast: 39 / 60 °F
Wind: 7 mph from Northwest

Location: Keene / Dillant

Current Time: Oct 22, 2016 at 7:52:13 AM

Latest Report: Oct 22, 2016 at 6:56 AM

Visibility: 10 mi

Pressure: 29.39 "Hg

Humidity: 89%

Dew Point: 50 °F

Location of BrattleboroLocation

Past Weather in Brattleboro — Graph


Brattleboro Temperature Yesterday

Maximum temperature yesterday: 72 °F (at 1:56 PM)
Minimum temperature yesterday: 53 °F (at 1:56 AM)
Average temperature yesterday: 62 °F

High & Low Weather Summary for the Past Weeks

High75 °F (Oct 7, 3:56 PM)100% (Oct 7, 6:56 AM)30.56 "Hg (Oct 7, 6:56 AM)
Low25 °F (Oct 15, 5:56 AM)32% (Oct 11, 1:56 PM)29.38 "Hg (Oct 22, 3:56 AM)
Average52 °F83%30.16 "Hg
* Reported Oct 7 6:56 AM — Oct 22 6:56 AM, Brattleboro, Weather by CustomWeather, © 2016

Note: Actual official high and low records may vary slightly from our data, if they occured in-between our weather recording intervals... More about our weather records


Brattleboro Weather History for the Previous 24 Hours

Scroll right to see more
Time TempWeatherWind HumidityBarometerVisibility
6:56 AM
Sat, Oct 22
53 °FOvercast.7 mph89%29.39 "Hg10 mi
5:56 AM55 °FOvercast.15 mph90%29.39 "Hg10 mi
4:56 AM57 °FLight rain. Fog.14 mph96%29.39 "Hg6 mi
3:56 AM60 °FFog.9 mph96%29.38 "Hg4 mi
2:56 AM62 °FLight rain. Fog.6 mph96%29.40 "Hg5 mi
1:56 AM62 °FFog.5 mph100%29.43 "Hg5 mi
12:56 AM63 °FLight rain. Low clouds.5 mph97%29.44 "Hg9 mi
11:56 PM
Fri, Oct 21
64 °FLight rain. Mostly cloudy.3 mph97%29.47 "Hg10 mi
11:03 PM64 °FPassing clouds.No wind100%29.44 "Hg9 mi
10:56 PM64 °FPartly cloudy.5 mph100%29.48 "Hg10 mi
9:56 PM65 °FPartly cloudy.5 mph97%29.51 "Hg8 mi
8:56 PM65 °FRain. Fog.No wind100%29.54 "Hg3 mi
7:56 PM66 °FRain. Fog.3 mph96%29.57 "Hg5 mi
6:56 PM66 °FPassing clouds.3 mph96%29.59 "Hg10 mi
5:56 PM67 °FOvercast.No wind97%29.62 "Hg10 mi
4:56 PM68 °FLight rain. Fog.5 mph93%29.66 "Hg4 mi
3:56 PM71 °FLight rain. Partly sunny.7 mph81%29.67 "Hg10 mi
2:56 PM72 °FLight rain. Mostly cloudy.5 mph78%29.70 "Hg10 mi
1:56 PM72 °FSunny.No wind76%29.73 "Hg10 mi
12:56 PM71 °FPartly sunny.9 mph78%29.77 "Hg10 mi
11:56 AM64 °FOvercast.No wind90%29.82 "Hg10 mi
10:56 AM59 °FOvercast.No wind96%29.85 "Hg10 mi
9:56 AM56 °FMostly cloudy.5 mph97%29.89 "Hg9 mi
8:56 AM55 °FLow clouds.3 mph100%29.91 "Hg9 mi
7:56 AM54 °FMostly cloudy.No wind100%29.93 "Hg8 mi
Weather by CustomWeather, © 2016

See weather overviewHow to use our weather pages